| time (UTC) | temp F | wind direction | speed MPH | gust MPH | rain 1hr in | rain 24hr in | rain mn in | humidity % | barometer mb |
| 20260503200016 | 55 | 23 | 1.0 | 10.0 | 0.00 | 0.00 | 0.00 | 26 | 1009.7 |
| 20260503193056 | 56 | 23 | 2.0 | 8.0 | 0.00 | 0.00 | 0.00 | 25 | 1010.1 |
| 20260503190036 | 55 | 315 | 2.0 | 12.0 | 0.00 | 0.00 | 0.00 | 27 | 1010.4 |
| 20260503183016 | 56 | 23 | 2.0 | 8.0 | 0.00 | 0.00 | 0.00 | 28 | 1010.7 |
| 20260503180017 | 52 | 23 | 3.0 | 7.0 | 0.00 | 0.00 | 0.00 | 32 | 1011.0 |
| 20260503173016 | 52 | 338 | 2.0 | 8.0 | 0.00 | 0.00 | 0.00 | 32 | 1011.1 |
| 20260503053036 | 42 | 0.0 | 0.0 | 0.00 | 0.18 | 0.00 | 56 | 1011.7 | |
| 20260503050016 | 42 | 0.0 | 1.0 | 0.00 | 0.21 | 0.00 | 53 | 1011.9 | |
| 20260503043016 | 43 | 0.0 | 1.0 | 0.00 | 0.22 | 0.00 | 52 | 1012.0 | |
| 20260503040016 | 44 | 0.0 | 1.0 | 0.00 | 0.22 | 0.22 | 49 | 1012.1 | |
| 20260503033037 | 45 | 0.0 | 2.0 | 0.00 | 0.22 | 0.22 | 48 | 1011.9 | |
| 20260503030017 | 46 | 0.0 | 2.0 | 0.00 | 0.22 | 0.22 | 45 | 1012.0 | |
| 20260503023016 | 48 | 45 | 1.0 | 4.0 | 0.00 | 0.22 | 0.22 | 43 | 1012.2 |
| 20260503020016 | 49 | 23 | 1.0 | 2.0 | 0.00 | 0.22 | 0.22 | 41 | 1012.3 |
| 20260503013036 | 50 | 0 | 1.0 | 4.0 | 0.00 | 0.22 | 0.22 | 39 | 1011.9 |
| 20260503010016 | 51 | 0.0 | 2.0 | 0.00 | 0.22 | 0.22 | 39 | 1011.7 | |
| 20260503003016 | 52 | 0.0 | 2.0 | 0.00 | 0.22 | 0.22 | 39 | 1011.3 | |
| 20260503000016 | 52 | 0 | 1.0 | 2.0 | 0.00 | 0.22 | 0.22 | 35 | 1011.1 |
| 20260502233016 | 53 | 0 | 1.0 | 3.0 | 0.00 | 0.22 | 0.22 | 35 | 1011.0 |
| 20260502230016 | 54 | 23 | 1.0 | 4.0 | 0.00 | 0.22 | 0.22 | 35 | 1010.9 |
| 20260502223016 | 55 | 0 | 1.0 | 4.0 | 0.00 | 0.22 | 0.22 | 34 | 1010.6 |
| 20260502220016 | 56 | 0.0 | 3.0 | 0.00 | 0.22 | 0.22 | 35 | 1010.2 | |
| 20260502213056 | 56 | 23 | 1.0 | 4.0 | 0.00 | 0.22 | 0.22 | 34 | 1010.0 |
| 20260502210017 | 57 | 68 | 1.0 | 3.0 | 0.00 | 0.22 | 0.22 | 35 | 1009.9 |
| 20260502203016 | 57 | 45 | 1.0 | 3.0 | 0.00 | 0.22 | 0.22 | 34 | 1010.0 |